Вернуться в каталог

STARLINK-3274

АктивенСвязьVLEO
NORAD 50186·PAYLOAD·🇺🇸 United States

Запущен Dec 18, 2021 с Vandenberg Space Force Base

Loading…

Ближайшие Пролёты (ближайшие 24 часа)

TLE

СвежийSource: CelesTrak SupGP

Эпоха: Sep 14, 2026, 21:17 UTC

1 50186C 21125AG  26257.88729167  .00020148  00000+0  64708-3 0  2570
2 50186  53.1562 116.9710 0001264  93.5089 146.6715 15.31733183    12

Отслеживайте STARLINK-3274 в реальном времени с AllMySat

Download on the App Store